Regional Weather Roundup
Issued by NWS

Home | Current Version | Previous Version | Graphics & Text | Print | Product List | Glossary On
Versions: 1 2 3 4 5 6 7 8 9 10 11 12 13 14 15 16 17 18 19 20 21 22 23 24 25 26 27 28 29 30 31 32 33 34 35 36 37 38 39 40 41 42 43 44 45 46 47 48 49 50
000
ASUS43 KMKX 241259
RWRWI

WISCONSIN REGIONAL WEATHER ROUNDUP
NATIONAL WEATHER SERVICE MILWAUKEE/SULLIVAN WI
700 AM CST TUE JAN 24 2017

NOTE: "FAIR" INDICATES FEW OR NO CLOUDS BELOW 12,000 FEET WITH NO
SIGNIFICANT WEATHER AND/OR OBSTRUCTIONS TO VISIBILITY.

WIZ001-002-006>008-014>016-023>028-241400-
NORTHWEST WISCONSIN

CITY           SKY/WX    TMP DP  RH WIND       PRES   REMARKS
SUPERIOR ARPT  CLOUDY    32  29  88 CALM      29.87R
ASHLAND        CLOUDY    33  31  92 W5        29.86S WCI  29
HAYWARD        CLOUDY    33  30  88 CALM      29.85R
SIREN          CLOUDY    31  31  99 CALM      29.87R FOG
CUMBERLAND     DRIZZLE   32  30  93 CALM      29.86R
RICE LAKE      CLOUDY    32  32  99 CALM      29.87R FOG
CHETEK         CLOUDY    32  32  99 CALM      29.87R FOG
LADYSMITH      CLOUDY    32  32  99 CALM      29.87R FOG
EAU CLAIRE     NOT AVBL
MENOMONIE        N/A    N/A N/A N/A MISG        N/A
NEW RICHMOND   CLOUDY    31  31  99 W3        29.88R FOG
OSCEOLA        CLOUDY    32  28  83 W3        29.91R
$$

WIZ003>005-009-010-017-018-241400-
NORTH CENTRAL WISCONSIN

CITY           SKY/WX    TMP DP  RH WIND       PRES   REMARKS
MANITOWISH WTR CLOUDY    32  32 100 W3        29.82S
ARBOR VITAE    CLOUDY    34  33  96 NW3       29.81S
WOODRUFF       CLOUDY    34  33  96 NW3       29.81S
RHINELANDER    CLOUDY    34  33  96 NW6       29.82R WCI  29
EAGLE RIVER    CLOUDY    32  32 100 NW6       29.80S WCI  27
LAND O LAKES   CLOUDY    33  33 100 CALM      29.82R FOG
PHILLIPS       CLOUDY    31  31 100 CALM      29.82S
TOMAHAWK       CLOUDY    32  31  97 CALM      29.83S
MEDFORD        CLOUDY    31  30  96 CALM      29.83R
MERRILL        CLOUDY    33  33  99 CALM        N/A
$$

WIZ029-030-035-036-043>047-241400-
CENTRAL WISCONSIN

CITY           SKY/WX    TMP DP  RH WIND       PRES   REMARKS
WAUSAU         CLOUDY    33  31  92 NW6       29.82S WCI  28
MOSINEE        CLOUDY    32  32 100 NW6       29.84S WCI  26
MARSHFIELD     CLOUDY    33  31  92 NW3       29.84R
STEVENS POINT  CLOUDY    32  32 100 W5        29.84S WCI  27
WAUPACA        CLOUDY    36  35  96 CALM      29.84S
WAUTOMA        CLOUDY    34  33  96 W5        29.86R WCI  30
WISC RAPIDS    CLOUDY    33  33 100 W5        29.86S WCI  29
CAMP DOUGLAS   NOT AVBL
$$

WIZ011>013-019>022-031-037>040-048>050-241400-
NORTHEAST WISCONSIN

CITY           SKY/WX    TMP DP  RH WIND       PRES   REMARKS
ANTIGO         CLOUDY    32  32 100 NW7       29.81S WCI  26
SHAWANO        CLOUDY    37  34  91 W5        29.83R WCI  33
OCONTO         CLOUDY    32  32  99 CALM      29.82S VSB 3/4
STURGEON BAY   FOG       33  33 100 CALM      29.83R VSB 1/2
GREEN BAY      CLOUDY    36  35  96 W6        29.83R WCI  31
MANITOWOC      NOT AVBL
APPLETON       CLOUDY    34  34 100 NW7       29.82R FOG     WCI  28
CLINTONVILLE   CLOUDY    34  34 100 NW7       29.83S WCI  28
OSHKOSH        CLOUDY    35  33  92 W5        29.84R FOG     WCI  31
$$

WIZ032>034-041-042-053>061-241400-
SOUTHWEST WISCONSIN

CITY           SKY/WX    TMP DP  RH WIND       PRES   REMARKS
LA CROSSE      CLOUDY    35  31  85 CALM      29.88S
SPARTA         CLOUDY    32  32 100 CALM      29.89R FOG
VIROQUA        CLOUDY    32  32 100 CALM      29.85S
BOSCOBEL       CLOUDY    34  31  88 CALM      29.89R
PRAIRIE DU CHI CLOUDY    33  31  94 CALM      29.88R
PLATTEVILLE    CLOUDY    33  33 100 CALM      29.87S
$$

WIZ056-057-062-063-064-067-068-241400-
SOUTH CENTRAL WISCONSIN

CITY           SKY/WX    TMP DP  RH WIND       PRES   REMARKS
REEDSBURG      CLOUDY    33  33 100 N3        29.85F
BARABOO/DELLS  CLOUDY    33  32  96 CALM      29.85F FOG
LONE ROCK      NOT AVBL
MINERAL POINT  CLOUDY    34  34 100 CALM      29.86R
MADISON        CLOUDY    34  30  85 W3        29.87R
MIDDLETON      CLOUDY    35  34  98 W3        29.87R
WATERTOWN      CLOUDY    34  34 100 W6        29.85S WCI  29
MONROE         CLOUDY    32  32 100 CALM      29.86R
JANESVILLE     CLOUDY    36  34  93 W6        29.88R WCI  31
$$

WIZ051-052-058>065-066-070>072-241400-
SOUTHEAST WISCONSIN

CITY           SKY/WX    TMP DP  RH WIND       PRES   REMARKS
MILWAUKEE      CLOUDY    37  33  85 NW9       29.85R WCI  30
WAUKESHA       CLOUDY    32  32 100 W6        29.85S FOG     WCI  26
MILWAUKEE/TIMM CLOUDY    36  32  87 W8        29.84S WCI  29
RACINE         CLOUDY    36  32  85 NW9       29.87R WCI  29
KENOSHA        CLOUDY    36  32  85 W8        29.85S WCI  30
FOND DU LAC    CLOUDY    35  32  88 W8        29.84R WCI  29
SHEBOYGAN      CLOUDY    35  33  92 W7        29.83R FOG     WCI  29
WEST BEND      CLOUDY    34  34 100 NW6       29.83S FOG     WCI  29
JUNEAU         CLOUDY    33  32  99 W5        29.85S FOG     WCI  28
$$

LSZ147-162-241400-
LAKE SUPERIOR

STATION/POSITION TIME  TEMP    WIND        PRES    WAVE
                       AIR SEA DIR/SP/G            HT/PER
                 (UTC) (F)     (DEG/KT/KT) (MB)    (FT/S)
DEVILS ISLAND    1200   35     240/ 11/ 13 1011.0R
PORT WING        1230   33     250/  3/  4 1011.5S
SAXON HARBOR     1240   34     220/  4/  7 1011.2R
$$

LMZ867-665-643>646-241400-
LAKE MICHIGAN

STATION/POSITION TIME  TEMP    WIND        PRES    WAVE
                       AIR SEA DIR/SP/G            HT/PER
                 (UTC) (F)     (DEG/KT/KT) (MB)    (FT/S)
NORTHPORT PIER   1240   35     290/  5/  8 1009.5S
SISTER BAY       1120   32        CALM       N/A
ALGOMA LAKESHORE 1209             CALM       N/A
KEWAUNEE LAKESHO 1230   35     300/  2/  5 1009.3S
SHEBOYGAN LAKESH 1200   36     290/  6/  8 1010.1R
PORT WASHINGTON  1230   36     290/  5/  7 1011.5R
KENOSHA   LAKESH 1200   37     300/  5/ 13 1010.5
$$

TC  - TEMPERATURE IN CELSIUS
VSB - VISIBILITY IN STATUTE MILES
WCI - WIND CHILL INDEX
HX  - HEAT INDEX





USA.gov is the U.S. government's official web portal to all federal, state and local government web resources and services.